Precipitable_Water
0.57 0.55 0.54 0.54 0.52 0.52 0.51 0.49 0.49 0.48 0.46 0.46 0.46 0.45 0.43 0.43 0.43 0.43 0.41 0.39 0.38 0.37 0.38 0.38 0.39 0.40 0.39 0.40 0.41 0.40 0.40 0.31 0.23 0.21 0.20 0.20 0.27 0.31 0.43 0.65 0.66 0.69 0.74 0.73 0.76 0.79 0.67 0.71 0.72 0.81 0.95 1.06 1.06 1.03 1.14 1.12 1.08 1.11 0.93 0.86 0.79 0.82 0.82 0.90 0.87 0.90 0.96 0.91 0.89 0.83 0.80 0.85 0.81 0.91 1.01 1.03 0.99 1.07 1.12 1.18 1.30 1.39 1.43 1.38 1.49 1.53 1.54 1.59
0.57 0.56 0.55 0.53 0.51 0.52 0.49 0.48 0.48 0.47 0.47 0.47 0.47 0.44 0.44 0.43 0.43 0.43 0.42 0.40 0.38 0.36 0.35 0.36 0.38 0.38 0.40 0.40 0.41 0.42 0.39 0.30 0.22 0.22 0.19 0.18 0.24 0.26 0.37 0.57 0.72 0.69 0.72 0.63 0.62 0.72 0.67 0.63 0.68 0.81 0.89 0.87 1.11 0.97 1.16 0.95 1.00 0.89 0.90 0.85 0.74 0.81 0.86 0.88 0.94 0.97 1.01 0.97 0.96 0.88 0.89 0.84 0.74 0.84 0.81 0.80 0.84 0.94 0.97 1.09 1.12 1.21 1.32 1.43 1.47 1.47 1.48 1.54
0.53 0.54 0.54 0.52 0.52 0.50 0.47 0.48 0.47 0.47 0.47 0.47 0.46 0.45 0.44 0.45 0.43 0.42 0.41 0.40 0.39 0.37 0.36 0.36 0.37 0.38 0.39 0.40 0.40 0.41 0.37 0.25 0.25 0.18 0.20 0.28 0.28 0.27 0.34 0.50 0.65 0.75 0.61 0.51 0.55 0.69 0.70 0.71 0.77 0.86 0.90 0.84 1.00 0.94 1.00 0.88 0.94 0.89 0.86 0.83 0.83 0.88 0.90 0.92 0.92 0.92 0.99 0.98 0.94 0.86 0.84 0.80 0.74 0.75 0.87 0.81 0.81 0.92 0.88 0.90 1.01 1.08 1.16 1.27 1.34 1.41 1.43 1.46
0.51 0.51 0.51 0.50 0.48 0.46 0.47 0.46 0.46 0.46 0.46 0.45 0.44 0.45 0.45 0.44 0.43 0.41 0.41 0.41 0.40 0.40 0.38 0.37 0.37 0.38 0.40 0.38 0.42 0.41 0.34 0.25 0.17 0.24 0.44 0.49 0.41 0.33 0.34 0.46 0.59 0.67 0.62 0.52 0.53 0.61 0.82 0.90 0.93 0.98 0.95 0.88 0.85 0.89 0.79 0.83 0.78 0.86 0.81 0.80 0.82 0.86 0.82 0.91 0.90 0.92 1.02 1.02 0.97 0.88 0.84 0.74 0.68 0.68 0.91 0.79 0.77 0.87 0.92 1.00 0.93 1.00 1.13 1.22 1.26 1.34 1.39 1.39
0.50 0.50 0.49 0.48 0.47 0.47 0.46 0.46 0.45 0.43 0.44 0.43 0.44 0.44 0.44 0.42 0.42 0.42 0.41 0.40 0.40 0.40 0.40 0.40 0.39 0.40 0.39 0.39 0.41 0.41 0.26 0.12 0.26 0.45 0.49 0.51 0.43 0.44 0.44 0.48 0.52 0.56 0.53 0.48 0.44 0.54 0.77 0.83 0.88 0.93 0.92 0.78 0.80 0.78 0.73 0.72 0.79 0.78 0.74 0.80 0.88 0.87 0.81 0.83 0.90 0.91 1.03 1.05 0.97 0.94 0.80 0.72 0.77 0.62 0.83 0.76 0.72 0.75 0.91 1.02 1.10 1.16 1.15 1.21 1.20 1.29 1.33 1.31
0.48 0.47 0.46 0.46 0.45 0.44 0.44 0.44 0.44 0.43 0.43 0.43 0.44 0.43 0.42 0.41 0.41 0.42 0.41 0.40 0.39 0.39 0.40 0.42 0.43 0.41 0.41 0.40 0.38 0.35 0.22 0.07 0.42 0.48 0.55 0.53 0.45 0.44 0.44 0.42 0.47 0.46 0.45 0.43 0.41 0.50 0.62 0.73 0.82 0.79 0.79 0.73 0.65 0.63 0.68 0.70 0.71 0.61 0.71 0.75 0.81 0.82 0.77 0.91 0.92 0.92 0.82 0.87 0.90 0.78 0.82 0.78 0.76 0.72 0.79 0.73 0.81 0.89 1.09 1.12 1.13 1.19 1.20 1.18 1.21 1.23 1.20 1.22
0.47 0.47 0.44 0.42 0.42 0.41 0.41 0.41 0.42 0.43 0.43 0.43 0.43 0.43 0.42 0.41 0.40 0.40 0.40 0.40 0.39 0.39 0.40 0.41 0.43 0.45 0.42 0.41 0.43 0.30 0.19 0.15 0.22 0.44 0.49 0.52 0.47 0.42 0.40 0.40 0.45 0.41 0.39 0.36 0.39 0.49 0.55 0.63 0.74 0.72 0.68 0.64 0.63 0.61 0.64 0.64 0.68 0.60 0.53 0.65 0.72 0.69 0.73 0.80 0.88 0.91 0.84 0.85 0.91 0.87 0.88 0.75 0.69 0.68 0.75 0.69 0.91 0.97 1.09 1.14 1.16 1.22 1.26 1.20 1.14 1.16 1.15 1.17
0.49 0.47 0.43 0.41 0.41 0.39 0.39 0.39 0.40 0.41 0.41 0.42 0.42 0.41 0.42 0.40 0.40 0.38 0.39 0.39 0.39 0.40 0.40 0.41 0.44 0.45 0.47 0.35 0.24 0.19 0.23 0.16 0.20 0.31 0.40 0.45 0.48 0.48 0.48 0.45 0.35 0.34 0.34 0.30 0.33 0.44 0.54 0.55 0.64 0.72 0.61 0.54 0.56 0.58 0.63 0.62 0.62 0.57 0.52 0.61 0.64 0.72 0.72 0.74 0.80 0.78 0.87 0.86 0.95 0.93 0.85 0.72 0.65 0.71 0.76 0.76 0.91 1.07 1.12 1.15 1.12 1.19 1.21 1.15 1.12 1.12 1.13 1.18
0.50 0.46 0.44 0.43 0.41 0.39 0.39 0.38 0.38 0.37 0.38 0.39 0.40 0.40 0.40 0.40 0.39 0.39 0.38 0.38 0.39 0.40 0.41 0.43 0.44 0.46 0.53 0.39 0.21 0.16 0.13 0.24 0.31 0.37 0.49 0.47 0.47 0.49 0.46 0.36 0.37 0.27 0.27 0.30 0.35 0.45 0.53 0.51 0.61 0.69 0.58 0.55 0.58 0.55 0.58 0.57 0.50 0.54 0.51 0.54 0.65 0.68 0.69 0.73 0.74 0.75 0.81 0.86 0.87 0.83 0.80 0.76 0.77 0.74 0.76 0.83 0.95 1.03 1.10 1.11 1.10 1.14 1.14 1.09 1.08 1.09 1.12 1.15
0.53 0.51 0.49 0.46 0.44 0.42 0.40 0.38 0.37 0.36 0.37 0.36 0.37 0.37 0.38 0.38 0.38 0.39 0.39 0.38 0.38 0.39 0.42 0.44 0.47 0.47 0.42 0.32 0.27 0.16 0.21 0.31 0.39 0.50 0.54 0.47 0.46 0.45 0.44 0.41 0.35 0.29 0.24 0.28 0.33 0.40 0.48 0.50 0.54 0.67 0.65 0.60 0.58 0.52 0.57 0.57 0.54 0.60 0.52 0.48 0.47 0.57 0.67 0.72 0.70 0.78 0.78 0.83 0.84 0.75 0.74 0.72 0.75 0.62 0.68 0.91 1.00 1.03 1.01 0.99 1.07 1.04 1.03 1.06 1.08 1.12 1.14 1.15
0.58 0.56 0.52 0.49 0.46 0.44 0.41 0.39 0.39 0.37 0.36 0.35 0.34 0.34 0.34 0.36 0.37 0.38 0.38 0.39 0.38 0.39 0.42 0.45 0.49 0.49 0.33 0.39 0.20 0.14 0.26 0.25 0.48 0.56 0.51 0.47 0.47 0.42 0.36 0.39 0.39 0.29 0.24 0.26 0.29 0.36 0.45 0.50 0.55 0.62 0.61 0.54 0.54 0.52 0.51 0.51 0.55 0.53 0.51 0.49 0.48 0.50 0.58 0.67 0.66 0.68 0.72 0.77 0.81 0.82 0.73 0.77 0.81 0.67 0.69 0.85 0.98 0.99 0.93 0.96 0.97 0.99 1.00 1.03 1.05 1.09 1.14 1.15
0.61 0.59 0.56 0.53 0.50 0.46 0.43 0.42 0.41 0.39 0.37 0.34 0.33 0.32 0.33 0.33 0.34 0.36 0.38 0.39 0.38 0.39 0.43 0.47 0.52 0.50 0.42 0.29 0.22 0.19 0.30 0.29 0.36 0.49 0.58 0.55 0.51 0.53 0.52 0.43 0.40 0.32 0.27 0.24 0.28 0.35 0.41 0.45 0.52 0.53 0.47 0.54 0.47 0.50 0.48 0.50 0.49 0.48 0.47 0.41 0.42 0.48 0.55 0.61 0.64 0.66 0.69 0.73 0.74 0.89 0.82 0.76 0.77 0.63 0.77 0.88 0.99 1.00 0.95 0.91 0.91 0.95 1.00 1.02 1.03 1.06 1.09 1.14
0.62 0.61 0.59 0.57 0.54 0.50 0.46 0.44 0.42 0.41 0.38 0.36 0.33 0.33 0.32 0.31 0.32 0.33 0.36 0.37 0.39 0.41 0.44 0.49 0.52 0.51 0.38 0.21 0.23 0.27 0.27 0.26 0.28 0.32 0.35 0.53 0.59 0.57 0.53 0.55 0.48 0.47 0.46 0.29 0.28 0.35 0.40 0.43 0.48 0.46 0.49 0.45 0.42 0.41 0.49 0.49 0.47 0.45 0.44 0.42 0.40 0.41 0.41 0.52 0.67 0.65 0.64 0.76 0.76 0.83 0.60 0.70 0.71 0.70 0.81 0.90 0.95 0.96 0.94 0.89 0.89 0.92 0.97 1.02 0.99 1.01 1.04 1.11
0.68 0.66 0.63 0.59 0.56 0.54 0.51 0.48 0.45 0.42 0.39 0.37 0.36 0.33 0.32 0.30 0.31 0.32 0.35 0.38 0.40 0.44 0.50 0.56 0.56 0.49 0.35 0.19 0.24 0.28 0.30 0.32 0.31 0.32 0.33 0.36 0.38 0.42 0.42 0.40 0.45 0.52 0.57 0.43 0.36 0.40 0.40 0.42 0.42 0.40 0.42 0.40 0.40 0.49 0.44 0.40 0.39 0.35 0.39 0.41 0.36 0.35 0.38 0.49 0.52 0.53 0.55 0.72 0.73 0.78 0.60 0.68 0.79 0.81 0.88 0.93 0.98 0.91 0.87 0.88 0.87 0.88 0.94 0.97 0.98 1.02 0.97 1.04
0.70 0.68 0.66 0.64 0.60 0.57 0.55 0.53 0.48 0.43 0.41 0.39 0.37 0.34 0.31 0.30 0.31 0.33 0.38 0.40 0.42 0.49 0.56 0.62 0.55 0.42 0.27 0.22 0.38 0.40 0.44 0.43 0.28 0.26 0.32 0.31 0.30 0.32 0.36 0.37 0.32 0.34 0.38 0.46 0.46 0.43 0.42 0.42 0.37 0.33 0.34 0.41 0.44 0.41 0.39 0.36 0.35 0.35 0.32 0.32 0.35 0.34 0.39 0.50 0.57 0.60 0.54 0.68 0.76 0.72 0.62 0.66 0.82 0.89 0.89 0.93 1.00 0.94 0.86 0.85 0.83 0.85 0.89 0.93 0.97 0.99 0.96 0.94
0.72 0.69 0.68 0.66 0.64 0.62 0.59 0.55 0.52 0.47 0.43 0.40 0.37 0.35 0.32 0.32 0.32 0.37 0.41 0.41 0.44 0.50 0.58 0.46 0.43 0.45 0.36 0.23 0.28 0.56 0.46 0.35 0.27 0.28 0.32 0.34 0.33 0.28 0.31 0.35 0.36 0.33 0.31 0.31 0.35 0.40 0.42 0.43 0.38 0.36 0.33 0.37 0.37 0.38 0.38 0.35 0.33 0.33 0.30 0.31 0.34 0.35 0.39 0.46 0.58 0.63 0.64 0.70 0.75 0.70 0.65 0.74 0.77 0.90 0.91 0.96 0.97 0.94 0.85 0.80 0.81 0.81 0.86 0.88 0.92 0.96 0.90 0.89
0.76 0.73 0.70 0.68 0.67 0.65 0.62 0.59 0.54 0.51 0.46 0.41 0.39 0.35 0.34 0.34 0.38 0.42 0.43 0.45 0.49 0.53 0.47 0.35 0.60 0.54 0.23 0.35 0.52 0.31 0.31 0.38 0.43 0.37 0.33 0.37 0.38 0.35 0.30 0.28 0.29 0.30 0.31 0.30 0.31 0.32 0.34 0.33 0.37 0.38 0.39 0.31 0.32 0.36 0.33 0.31 0.29 0.30 0.31 0.31 0.35 0.34 0.37 0.38 0.54 0.63 0.66 0.68 0.65 0.70 0.64 0.72 0.82 0.92 0.96 0.98 0.95 0.90 0.80 0.76 0.75 0.79 0.87 0.85 0.90 0.92 0.90 0.83
0.79 0.78 0.74 0.72 0.70 0.68 0.65 0.61 0.57 0.53 0.49 0.44 0.40 0.38 0.35 0.39 0.52 0.58 0.59 0.60 0.60 0.54 0.51 0.51 0.49 0.43 0.25 0.34 0.26 0.32 0.39 0.36 0.43 0.44 0.40 0.39 0.36 0.33 0.28 0.26 0.27 0.27 0.28 0.27 0.30 0.26 0.30 0.26 0.31 0.26 0.31 0.30 0.29 0.29 0.28 0.26 0.28 0.28 0.28 0.29 0.33 0.36 0.38 0.42 0.48 0.60 0.67 0.69 0.63 0.68 0.65 0.71 0.81 0.88 0.92 0.97 0.96 0.86 0.80 0.77 0.77 0.75 0.82 0.83 0.88 0.89 0.88 0.82
0.81 0.79 0.78 0.76 0.73 0.70 0.67 0.63 0.58 0.54 0.51 0.47 0.44 0.43 0.48 0.62 0.65 0.61 0.59 0.61 0.50 0.42 0.27 0.28 0.33 0.17 0.11 0.37 0.46 0.47 0.48 0.46 0.43 0.45 0.41 0.39 0.37 0.31 0.29 0.29 0.28 0.27 0.24 0.25 0.25 0.24 0.29 0.24 0.25 0.21 0.19 0.23 0.25 0.25 0.27 0.31 0.33 0.31 0.30 0.29 0.32 0.35 0.38 0.42 0.54 0.64 0.66 0.69 0.66 0.69 0.64 0.65 0.74 0.78 0.91 0.96 0.96 0.86 0.83 0.78 0.78 0.79 0.80 0.81 0.84 0.86 0.85 0.87
0.83 0.82 0.80 0.78 0.75 0.72 0.70 0.65 0.59 0.54 0.53 0.50 0.44 0.41 0.50 0.39 0.36 0.46 0.57 0.56 0.45 0.42 0.40 0.41 0.44 0.36 0.31 0.31 0.34 0.44 0.53 0.51 0.40 0.39 0.42 0.42 0.37 0.29 0.24 0.26 0.26 0.28 0.29 0.23 0.25 0.24 0.28 0.19 0.16 0.15 0.15 0.19 0.24 0.26 0.28 0.33 0.36 0.34 0.32 0.31 0.32 0.38 0.43 0.48 0.54 0.61 0.68 0.67 0.68 0.71 0.72 0.71 0.74 0.75 0.89 0.95 0.95 0.90 0.85 0.77 0.74 0.77 0.79 0.79 0.79 0.82 0.84 0.83
0.83 0.83 0.81 0.78 0.75 0.73 0.71 0.66 0.60 0.55 0.55 0.56 0.50 0.45 0.30 0.35 0.27 0.24 0.29 0.31 0.32 0.32 0.31 0.32 0.43 0.46 0.35 0.36 0.42 0.46 0.49 0.38 0.37 0.40 0.38 0.44 0.36 0.27 0.20 0.22 0.24 0.25 0.28 0.28 0.23 0.28 0.25 0.19 0.15 0.17 0.17 0.19 0.22 0.25 0.28 0.29 0.33 0.32 0.31 0.31 0.33 0.39 0.43 0.49 0.54 0.64 0.69 0.63 0.65 0.69 0.70 0.73 0.77 0.78 0.88 0.96 0.95 0.90 0.86 0.79 0.74 0.76 0.82 0.80 0.78 0.80 0.82 0.84
0.83 0.82 0.81 0.78 0.76 0.73 0.70 0.66 0.60 0.58 0.61 0.58 0.52 0.41 0.41 0.43 0.46 0.43 0.36 0.26 0.29 0.30 0.27 0.24 0.25 0.27 0.35 0.39 0.39 0.51 0.51 0.42 0.41 0.38 0.41 0.40 0.33 0.24 0.25 0.23 0.24 0.24 0.29 0.27 0.25 0.22 0.19 0.15 0.17 0.19 0.20 0.20 0.21 0.24 0.26 0.26 0.29 0.32 0.31 0.32 0.33 0.37 0.46 0.52 0.58 0.64 0.68 0.65 0.63 0.69 0.66 0.72 0.78 0.79 0.87 0.96 0.96 0.96 0.94 0.88 0.80 0.79 0.81 0.82 0.79 0.79 0.82 0.86
0.81 0.81 0.80 0.79 0.76 0.74 0.70 0.67 0.59 0.63 0.58 0.47 0.45 0.43 0.40 0.47 0.50 0.47 0.41 0.32 0.26 0.28 0.25 0.24 0.21 0.20 0.20 0.24 0.27 0.38 0.34 0.32 0.32 0.37 0.38 0.39 0.36 0.29 0.29 0.23 0.23 0.26 0.28 0.26 0.19 0.18 0.15 0.16 0.18 0.21 0.21 0.18 0.17 0.21 0.25 0.26 0.28 0.31 0.32 0.31 0.30 0.36 0.39 0.41 0.53 0.59 0.64 0.62 0.61 0.66 0.65 0.69 0.77 0.83 0.86 0.93 0.97 1.00 1.01 0.98 0.90 0.88 0.83 0.82 0.81 0.80 0.80 0.83
0.79 0.78 0.78 0.77 0.77 0.73 0.71 0.65 0.62 0.62 0.47 0.47 0.47 0.47 0.52 0.52 0.46 0.42 0.33 0.25 0.23 0.27 0.26 0.24 0.23 0.21 0.19 0.18 0.19 0.25 0.26 0.29 0.32 0.31 0.40 0.37 0.29 0.31 0.28 0.25 0.22 0.24 0.25 0.26 0.21 0.18 0.15 0.19 0.20 0.20 0.19 0.18 0.16 0.16 0.19 0.22 0.23 0.28 0.32 0.32 0.32 0.35 0.39 0.42 0.46 0.54 0.60 0.66 0.66 0.65 0.63 0.65 0.74 0.76 0.79 0.86 0.95 1.01 1.02 1.01 0.98 0.95 0.93 0.90 0.90 0.86 0.86 0.86
0.76 0.75 0.75 0.76 0.75 0.76 0.68 0.64 0.64 0.55 0.52 0.50 0.50 0.56 0.57 0.52 0.48 0.45 0.33 0.29 0.28 0.27 0.33 0.27 0.26 0.24 0.22 0.23 0.21 0.17 0.23 0.27 0.30 0.33 0.38 0.36 0.30 0.29 0.25 0.29 0.26 0.21 0.22 0.26 0.25 0.20 0.18 0.20 0.22 0.19 0.18 0.16 0.15 0.14 0.15 0.17 0.18 0.21 0.28 0.32 0.33 0.36 0.37 0.41 0.45 0.52 0.55 0.58 0.62 0.61 0.53 0.56 0.70 0.75 0.78 0.85 0.89 0.93 1.00 0.98 0.95 0.98 0.97 0.94 0.89 0.87 0.88 0.90
0.73 0.71 0.73 0.74 0.74 0.74 0.69 0.53 0.59 0.51 0.50 0.49 0.53 0.58 0.57 0.54 0.48 0.43 0.38 0.27 0.20 0.27 0.30 0.22 0.28 0.20 0.26 0.20 0.20 0.18 0.19 0.18 0.26 0.30 0.34 0.37 0.36 0.29 0.29 0.26 0.26 0.21 0.22 0.23 0.23 0.23 0.21 0.21 0.19 0.19 0.18 0.16 0.14 0.13 0.14 0.15 0.16 0.17 0.19 0.31 0.34 0.35 0.37 0.38 0.42 0.46 0.47 0.46 0.59 0.64 0.50 0.51 0.66 0.69 0.75 0.84 0.83 0.82 0.90 0.94 0.97 0.98 0.99 0.96 0.92 0.91 0.88 0.88
0.71 0.69 0.69 0.70 0.71 0.74 0.58 0.46 0.57 0.58 0.44 0.45 0.57 0.59 0.55 0.53 0.51 0.44 0.34 0.24 0.19 0.27 0.24 0.30 0.27 0.25 0.26 0.21 0.19 0.19 0.12 0.13 0.20 0.28 0.28 0.33 0.31 0.33 0.26 0.25 0.26 0.26 0.28 0.27 0.23 0.20 0.25 0.24 0.19 0.18 0.18 0.17 0.15 0.12 0.12 0.13 0.14 0.15 0.19 0.25 0.30 0.32 0.34 0.36 0.38 0.39 0.43 0.53 0.57 0.60 0.57 0.51 0.55 0.63 0.73 0.80 0.82 0.83 0.86 0.93 0.97 0.98 0.98 0.96 0.96 0.95 0.93 0.93
0.68 0.67 0.66 0.67 0.67 0.69 0.62 0.65 0.58 0.50 0.49 0.51 0.57 0.57 0.56 0.51 0.50 0.47 0.32 0.17 0.15 0.30 0.26 0.29 0.30 0.32 0.27 0.25 0.22 0.17 0.16 0.19 0.16 0.19 0.24 0.27 0.29 0.30 0.25 0.23 0.23 0.22 0.25 0.26 0.17 0.20 0.24 0.23 0.22 0.18 0.17 0.16 0.14 0.14 0.13 0.13 0.13 0.15 0.19 0.22 0.23 0.27 0.33 0.37 0.38 0.38 0.39 0.46 0.47 0.54 0.60 0.51 0.50 0.64 0.75 0.81 0.77 0.81 0.83 0.88 0.93 0.96 0.96 0.96 0.97 0.98 0.95 0.96
0.63 0.63 0.63 0.63 0.64 0.64 0.67 0.66 0.60 0.51 0.55 0.57 0.55 0.54 0.53 0.52 0.43 0.35 0.27 0.18 0.27 0.28 0.37 0.27 0.42 0.30 0.27 0.26 0.22 0.21 0.18 0.20 0.16 0.20 0.24 0.25 0.26 0.27 0.23 0.22 0.24 0.25 0.26 0.26 0.20 0.23 0.24 0.23 0.25 0.20 0.18 0.15 0.16 0.16 0.15 0.13 0.12 0.14 0.19 0.22 0.23 0.26 0.32 0.37 0.37 0.38 0.38 0.37 0.39 0.50 0.58 0.48 0.49 0.60 0.68 0.76 0.78 0.77 0.79 0.85 0.89 0.94 0.97 0.98 0.97 0.98 0.97 0.95
0.57 0.58 0.59 0.59 0.59 0.55 0.57 0.60 0.54 0.56 0.58 0.57 0.55 0.58 0.50 0.42 0.37 0.27 0.23 0.16 0.29 0.22 0.30 0.31 0.31 0.27 0.26 0.22 0.22 0.23 0.19 0.19 0.22 0.25 0.26 0.23 0.23 0.25 0.26 0.28 0.23 0.24 0.24 0.27 0.24 0.24 0.25 0.26 0.25 0.24 0.19 0.18 0.18 0.17 0.17 0.15 0.13 0.15 0.17 0.19 0.21 0.24 0.27 0.30 0.35 0.37 0.37 0.32 0.35 0.46 0.54 0.51 0.44 0.56 0.60 0.62 0.65 0.77 0.83 0.86 0.90 0.95 1.01 1.03 1.02 0.99 0.98 0.96
0.53 0.53 0.53 0.55 0.47 0.51 0.57 0.47 0.49 0.61 0.59 0.56 0.57 0.52 0.43 0.39 0.28 0.23 0.17 0.22 0.30 0.26 0.34 0.31 0.28 0.32 0.25 0.22 0.21 0.24 0.23 0.20 0.20 0.24 0.22 0.25 0.23 0.23 0.23 0.23 0.26 0.23 0.22 0.24 0.24 0.24 0.22 0.25 0.23 0.24 0.25 0.22 0.20 0.18 0.18 0.17 0.15 0.14 0.15 0.17 0.19 0.20 0.24 0.25 0.26 0.32 0.31 0.30 0.36 0.42 0.46 0.52 0.40 0.50 0.62 0.68 0.75 0.83 0.85 0.85 0.88 0.95 0.99 1.01 1.01 0.98 0.97 0.99
0.51 0.49 0.48 0.46 0.44 0.53 0.46 0.41 0.49 0.57 0.57 0.57 0.54 0.42 0.41 0.27 0.28 0.20 0.19 0.32 0.23 0.26 0.28 0.29 0.32 0.30 0.28 0.26 0.23 0.22 0.22 0.22 0.21 0.21 0.21 0.22 0.21 0.20 0.20 0.18 0.20 0.15 0.16 0.17 0.19 0.24 0.22 0.20 0.23 0.24 0.26 0.23 0.20 0.17 0.17 0.17 0.16 0.13 0.14 0.16 0.16 0.15 0.18 0.17 0.20 0.20 0.25 0.26 0.35 0.41 0.44 0.43 0.43 0.50 0.57 0.64 0.72 0.80 0.85 0.86 0.87 0.90 0.94 0.96 0.95 0.97 1.00 1.04
0.47 0.46 0.43 0.39 0.42 0.41 0.45 0.50 0.54 0.58 0.62 0.60 0.52 0.46 0.31 0.26 0.18 0.22 0.24 0.27 0.24 0.28 0.27 0.33 0.32 0.32 0.32 0.28 0.24 0.24 0.25 0.21 0.24 0.22 0.23 0.23 0.23 0.21 0.23 0.21 0.23 0.17 0.12 0.16 0.17 0.20 0.21 0.23 0.22 0.23 0.25 0.25 0.23 0.18 0.15 0.14 0.16 0.14 0.12 0.13 0.14 0.14 0.14 0.14 0.18 0.20 0.22 0.28 0.34 0.39 0.43 0.38 0.47 0.54 0.62 0.63 0.67 0.73 0.81 0.87 0.88 0.88 0.89 0.91 0.96 1.01 1.03 1.06
0.45 0.43 0.37 0.33 0.38 0.38 0.40 0.49 0.53 0.59 0.56 0.59 0.45 0.35 0.30 0.22 0.19 0.27 0.26 0.29 0.29 0.33 0.32 0.29 0.32 0.34 0.34 0.29 0.28 0.29 0.25 0.27 0.27 0.23 0.24 0.23 0.24 0.21 0.22 0.24 0.24 0.22 0.18 0.17 0.14 0.17 0.16 0.17 0.21 0.22 0.19 0.25 0.22 0.20 0.17 0.16 0.17 0.15 0.13 0.13 0.13 0.15 0.14 0.12 0.15 0.17 0.18 0.22 0.30 0.34 0.31 0.30 0.30 0.34 0.53 0.60 0.65 0.72 0.78 0.85 0.91 0.93 0.93 0.95 0.98 1.03 1.05 1.08
0.44 0.39 0.40 0.33 0.33 0.34 0.38 0.42 0.50 0.57 0.57 0.47 0.40 0.30 0.22 0.19 0.24 0.23 0.25 0.27 0.31 0.34 0.32 0.34 0.30 0.28 0.27 0.32 0.34 0.33 0.32 0.28 0.31 0.26 0.23 0.23 0.22 0.23 0.21 0.21 0.23 0.24 0.21 0.15 0.17 0.18 0.16 0.18 0.23 0.24 0.23 0.25 0.23 0.25 0.23 0.19 0.17 0.14 0.13 0.13 0.12 0.13 0.18 0.15 0.18 0.18 0.22 0.24 0.23 0.28 0.28 0.33 0.31 0.44 0.49 0.57 0.64 0.67 0.74 0.83 0.87 0.90 0.95 0.99 0.99 1.00 1.04 1.09
0.41 0.34 0.37 0.28 0.28 0.29 0.38 0.42 0.50 0.57 0.49 0.41 0.32 0.25 0.20 0.22 0.21 0.27 0.27 0.32 0.31 0.30 0.32 0.33 0.31 0.27 0.26 0.26 0.33 0.33 0.38 0.32 0.33 0.30 0.24 0.25 0.26 0.24 0.25 0.24 0.23 0.23 0.21 0.16 0.18 0.16 0.18 0.16 0.24 0.26 0.26 0.24 0.26 0.27 0.26 0.24 0.14 0.13 0.12 0.10 0.10 0.15 0.17 0.17 0.18 0.23 0.25 0.26 0.22 0.28 0.29 0.34 0.38 0.40 0.43 0.47 0.54 0.61 0.65 0.72 0.81 0.85 0.92 0.97 0.99 1.01 1.05 1.08
0.36 0.38 0.27 0.25 0.35 0.45 0.42 0.42 0.48 0.53 0.47 0.35 0.28 0.20 0.25 0.26 0.29 0.28 0.29 0.29 0.30 0.29 0.27 0.25 0.26 0.26 0.25 0.25 0.27 0.31 0.34 0.35 0.33 0.30 0.25 0.27 0.26 0.27 0.26 0.26 0.26 0.25 0.23 0.22 0.18 0.20 0.17 0.17 0.21 0.23 0.23 0.25 0.27 0.28 0.27 0.26 0.21 0.16 0.11 0.11 0.13 0.15 0.18 0.18 0.16 0.18 0.21 0.20 0.21 0.25 0.25 0.30 0.30 0.27 0.41 0.43 0.46 0.55 0.62 0.68 0.75 0.84 0.90 0.93 0.97 1.03 1.06 1.05
0.39 0.37 0.33 0.31 0.41 0.51 0.57 0.54 0.52 0.50 0.42 0.32 0.22 0.23 0.30 0.24 0.29 0.29 0.32 0.31 0.31 0.31 0.28 0.26 0.25 0.26 0.24 0.25 0.25 0.28 0.33 0.31 0.31 0.31 0.27 0.29 0.23 0.31 0.28 0.25 0.27 0.26 0.25 0.25 0.21 0.20 0.20 0.17 0.22 0.24 0.26 0.27 0.26 0.26 0.24 0.25 0.23 0.15 0.13 0.16 0.12 0.11 0.11 0.17 0.18 0.16 0.17 0.18 0.19 0.24 0.26 0.26 0.31 0.33 0.39 0.42 0.45 0.49 0.58 0.66 0.70 0.76 0.83 0.86 0.92 0.96 1.02 1.05
0.43 0.39 0.24 0.31 0.46 0.46 0.51 0.59 0.54 0.47 0.38 0.28 0.23 0.21 0.27 0.30 0.34 0.33 0.35 0.36 0.34 0.32 0.28 0.27 0.26 0.27 0.25 0.22 0.24 0.28 0.31 0.29 0.32 0.30 0.27 0.29 0.25 0.30 0.29 0.29 0.26 0.28 0.28 0.26 0.22 0.22 0.23 0.16 0.18 0.27 0.27 0.27 0.26 0.24 0.18 0.19 0.20 0.19 0.18 0.17 0.18 0.15 0.14 0.13 0.17 0.17 0.17 0.16 0.19 0.19 0.23 0.23 0.29 0.34 0.43 0.44 0.47 0.51 0.55 0.61 0.66 0.73 0.79 0.82 0.86 0.91 0.96 1.00
0.37 0.29 0.20 0.32 0.44 0.52 0.58 0.54 0.49 0.47 0.38 0.26 0.26 0.26 0.29 0.27 0.30 0.35 0.36 0.34 0.33 0.32 0.29 0.28 0.29 0.26 0.27 0.25 0.24 0.23 0.26 0.29 0.32 0.31 0.30 0.31 0.29 0.34 0.31 0.35 0.31 0.30 0.31 0.28 0.24 0.22 0.21 0.23 0.17 0.21 0.29 0.29 0.23 0.24 0.21 0.20 0.17 0.16 0.15 0.14 0.15 0.15 0.17 0.17 0.17 0.17 0.15 0.15 0.16 0.18 0.18 0.22 0.30 0.39 0.40 0.43 0.43 0.48 0.51 0.55 0.61 0.68 0.76 0.79 0.82 0.85 0.87 0.93
0.41 0.31 0.20 0.38 0.46 0.53 0.58 0.48 0.44 0.39 0.36 0.38 0.37 0.33 0.36 0.32 0.34 0.34 0.35 0.38 0.36 0.38 0.33 0.31 0.31 0.27 0.27 0.26 0.26 0.26 0.25 0.25 0.28 0.30 0.31 0.30 0.31 0.28 0.34 0.35 0.35 0.32 0.31 0.30 0.25 0.23 0.19 0.23 0.18 0.19 0.23 0.24 0.26 0.29 0.28 0.24 0.20 0.17 0.15 0.12 0.13 0.12 0.12 0.11 0.12 0.16 0.14 0.14 0.15 0.16 0.16 0.23 0.33 0.37 0.39 0.45 0.50 0.50 0.53 0.56 0.60 0.64 0.69 0.73 0.79 0.81 0.81 0.84
0.34 0.22 0.20 0.34 0.42 0.47 0.45 0.35 0.37 0.48 0.41 0.35 0.31 0.34 0.31 0.36 0.30 0.29 0.32 0.37 0.39 0.36 0.41 0.36 0.34 0.30 0.28 0.27 0.28 0.28 0.26 0.24 0.25 0.28 0.31 0.29 0.31 0.31 0.36 0.38 0.37 0.37 0.30 0.26 0.24 0.26 0.22 0.22 0.22 0.18 0.19 0.23 0.29 0.32 0.32 0.30 0.26 0.22 0.19 0.15 0.14 0.14 0.13 0.11 0.09 0.12 0.14 0.14 0.14 0.19 0.19 0.21 0.32 0.39 0.38 0.41 0.48 0.53 0.56 0.58 0.59 0.61 0.63 0.67 0.77 0.80 0.80 0.81
0.33 0.26 0.34 0.35 0.39 0.42 0.37 0.30 0.34 0.36 0.39 0.39 0.40 0.35 0.35 0.30 0.27 0.29 0.29 0.31 0.32 0.37 0.37 0.37 0.34 0.33 0.32 0.29 0.27 0.27 0.27 0.25 0.24 0.24 0.29 0.32 0.32 0.33 0.35 0.37 0.37 0.36 0.35 0.30 0.29 0.28 0.29 0.21 0.19 0.19 0.20 0.24 0.30 0.33 0.33 0.31 0.28 0.23 0.21 0.20 0.17 0.13 0.13 0.11 0.11 0.14 0.15 0.15 0.15 0.15 0.15 0.20 0.29 0.36 0.40 0.46 0.50 0.54 0.56 0.57 0.58 0.60 0.62 0.63 0.73 0.78 0.84 0.83
0.36 0.33 0.28 0.33 0.44 0.47 0.32 0.24 0.25 0.28 0.32 0.35 0.35 0.33 0.35 0.34 0.32 0.29 0.29 0.28 0.28 0.30 0.33 0.35 0.37 0.38 0.34 0.34 0.31 0.28 0.28 0.24 0.26 0.26 0.27 0.30 0.29 0.36 0.33 0.33 0.36 0.34 0.34 0.33 0.27 0.31 0.25 0.25 0.21 0.18 0.17 0.19 0.24 0.30 0.28 0.29 0.27 0.24 0.21 0.21 0.20 0.16 0.14 0.13 0.12 0.15 0.12 0.14 0.16 0.16 0.14 0.18 0.24 0.32 0.43 0.48 0.50 0.53 0.56 0.61 0.64 0.64 0.64 0.64 0.69 0.79 0.83 0.86
0.40 0.37 0.33 0.34 0.41 0.40 0.30 0.32 0.27 0.27 0.28 0.29 0.28 0.25 0.26 0.26 0.26 0.25 0.25 0.25 0.28 0.28 0.30 0.32 0.37 0.40 0.38 0.37 0.34 0.31 0.30 0.27 0.25 0.28 0.27 0.28 0.28 0.32 0.32 0.32 0.33 0.31 0.37 0.38 0.36 0.34 0.27 0.27 0.23 0.17 0.15 0.13 0.16 0.18 0.21 0.21 0.22 0.24 0.24 0.21 0.19 0.18 0.14 0.12 0.10 0.12 0.14 0.17 0.17 0.18 0.18 0.22 0.28 0.26 0.34 0.38 0.47 0.55 0.59 0.62 0.64 0.63 0.65 0.63 0.65 0.74 0.80 0.83
0.34 0.23 0.27 0.31 0.35 0.38 0.36 0.37 0.32 0.29 0.27 0.25 0.23 0.22 0.22 0.19 0.21 0.23 0.29 0.32 0.32 0.26 0.27 0.30 0.33 0.38 0.39 0.37 0.34 0.32 0.31 0.30 0.27 0.27 0.28 0.28 0.28 0.29 0.29 0.32 0.33 0.32 0.33 0.39 0.39 0.35 0.29 0.29 0.27 0.22 0.19 0.18 0.18 0.25 0.29 0.30 0.25 0.22 0.23 0.24 0.22 0.20 0.18 0.14 0.12 0.11 0.11 0.16 0.17 0.17 0.18 0.24 0.26 0.26 0.23 0.33 0.38 0.45 0.52 0.62 0.63 0.62 0.60 0.64 0.73 0.73 0.77 0.83
0.44 0.29 0.29 0.24 0.31 0.33 0.31 0.39 0.37 0.40 0.32 0.36 0.28 0.31 0.27 0.31 0.33 0.30 0.36 0.31 0.37 0.40 0.40 0.38 0.37 0.32 0.35 0.40 0.38 0.37 0.36 0.32 0.30 0.28 0.29 0.28 0.28 0.29 0.30 0.29 0.30 0.33 0.35 0.37 0.41 0.37 0.31 0.27 0.27 0.26 0.25 0.22 0.25 0.24 0.29 0.31 0.27 0.25 0.25 0.24 0.25 0.22 0.19 0.15 0.11 0.10 0.11 0.12 0.12 0.18 0.21 0.18 0.23 0.31 0.33 0.27 0.33 0.40 0.44 0.50 0.60 0.64 0.67 0.64 0.68 0.73 0.78 0.81
0.33 0.36 0.41 0.43 0.33 0.27 0.29 0.30 0.38 0.35 0.38 0.39 0.33 0.34 0.28 0.27 0.26 0.25 0.26 0.30 0.38 0.46 0.39 0.39 0.37 0.41 0.45 0.44 0.41 0.34 0.37 0.37 0.33 0.27 0.35 0.35 0.35 0.36 0.34 0.31 0.29 0.33 0.37 0.41 0.43 0.36 0.34 0.27 0.28 0.28 0.27 0.26 0.25 0.27 0.28 0.31 0.30 0.27 0.26 0.25 0.24 0.23 0.20 0.17 0.14 0.11 0.11 0.11 0.10 0.12 0.19 0.23 0.24 0.26 0.32 0.37 0.39 0.37 0.39 0.41 0.45 0.55 0.61 0.67 0.68 0.67 0.71 0.77
0.45 0.42 0.41 0.47 0.35 0.37 0.38 0.39 0.41 0.39 0.37 0.37 0.35 0.35 0.31 0.30 0.29 0.30 0.32 0.28 0.32 0.37 0.43 0.34 0.35 0.40 0.42 0.46 0.45 0.42 0.44 0.35 0.31 0.33 0.35 0.34 0.34 0.35 0.30 0.32 0.33 0.34 0.43 0.43 0.38 0.38 0.35 0.34 0.33 0.30 0.29 0.29 0.27 0.28 0.29 0.29 0.32 0.29 0.26 0.26 0.25 0.23 0.21 0.19 0.18 0.16 0.14 0.12 0.13 0.13 0.15 0.17 0.21 0.25 0.30 0.39 0.43 0.48 0.48 0.51 0.53 0.53 0.56 0.63 0.69 0.75 0.79 0.82
0.39 0.39 0.37 0.44 0.43 0.38 0.40 0.39 0.38 0.38 0.34 0.38 0.33 0.35 0.34 0.34 0.32 0.34 0.33 0.32 0.27 0.33 0.44 0.40 0.40 0.40 0.42 0.45 0.47 0.44 0.45 0.46 0.44 0.38 0.41 0.41 0.38 0.40 0.38 0.37 0.36 0.40 0.49 0.48 0.40 0.38 0.33 0.33 0.37 0.35 0.30 0.30 0.30 0.29 0.30 0.29 0.30 0.32 0.29 0.28 0.26 0.25 0.23 0.22 0.20 0.18 0.18 0.15 0.13 0.13 0.14 0.15 0.19 0.22 0.27 0.38 0.42 0.48 0.52 0.52 0.54 0.56 0.61 0.68 0.74 0.72 0.80 0.79
0.51 0.53 0.54 0.42 0.32 0.35 0.39 0.38 0.36 0.35 0.32 0.32 0.32 0.34 0.35 0.35 0.32 0.34 0.33 0.37 0.34 0.30 0.40 0.40 0.44 0.44 0.44 0.45 0.47 0.46 0.49 0.46 0.46 0.47 0.47 0.45 0.38 0.43 0.40 0.36 0.42 0.39 0.43 0.48 0.43 0.40 0.36 0.35 0.38 0.38 0.33 0.33 0.35 0.32 0.30 0.31 0.30 0.30 0.31 0.31 0.28 0.27 0.24 0.23 0.21 0.20 0.17 0.16 0.16 0.14 0.12 0.12 0.16 0.21 0.18 0.25 0.37 0.41 0.45 0.50 0.52 0.56 0.57 0.65 0.82 0.82 0.82 0.90
0.57 0.62 0.59 0.50 0.33 0.37 0.35 0.38 0.38 0.35 0.29 0.35 0.38 0.35 0.34 0.34 0.38 0.38 0.34 0.40 0.43 0.43 0.43 0.45 0.47 0.45 0.43 0.44 0.45 0.49 0.52 0.52 0.51 0.53 0.53 0.51 0.51 0.49 0.48 0.45 0.45 0.42 0.42 0.44 0.49 0.40 0.39 0.35 0.34 0.36 0.33 0.34 0.39 0.38 0.34 0.31 0.30 0.27 0.28 0.30 0.34 0.33 0.30 0.26 0.23 0.22 0.19 0.17 0.15 0.15 0.14 0.15 0.16 0.17 0.20 0.19 0.24 0.34 0.41 0.44 0.48 0.50 0.57 0.61 0.70 0.80 0.80 0.79
Wind_Speed
15 15 15 15 15 15 15 15 15 16 16 16 16 16 16 16 16 16 16 16 16 16 16 16 16 16 16 16 15 15 15 14 14 13 14 14 14 15 15 14 13 14 15 13 12 12 11 11 11 10 9 8 7 6 5 5 6 4 1 0 1 3 3 1 1 1 3 3 2 4 5 4 3 4 5 6 7 8 8 7 8 8 9 10 12 14 15 15
15 16 16 16 16 16 16 16 16 16 16 16 16 17 17 17 17 16 17 16 16 16 16 16 16 16 16 16 15 15 15 14 14 15 15 15 15 16 16 15 14 14 14 14 14 14 13 12 11 11 10 9 7 7 7 5 5 5 2 1 2 3 2 2 1 1 3 4 3 5 5 3 3 4 5 6 7 8 8 8 9 10 10 11 14 14 14 15
16 16 16 16 16 16 16 16 16 16 16 17 17 17 17 17 17 17 17 17 17 16 16 16 16 16 16 16 15 15 14 13 14 13 12 12 14 16 16 16 15 15 15 15 14 15 14 13 12 12 11 10 8 8 8 6 6 6 4 2 3 4 3 3 2 4 4 4 4 5 4 4 4 4 6 6 7 7 7 8 9 10 12 12 14 14 14 15
16 16 16 16 16 17 17 17 17 17 17 17 17 17 17 17 17 17 17 17 17 17 17 16 16 16 16 16 15 14 13 12 12 10 8 8 11 14 15 16 16 16 16 16 15 16 16 14 13 13 12 10 9 9 8 8 7 7 7 4 4 4 3 5 5 3 3 4 4 5 4 4 5 5 7 7 6 6 6 8 10 11 12 13 14 15 14 15
16 16 17 17 17 17 17 17 17 17 17 17 17 17 17 18 18 18 18 17 17 17 17 16 16 16 15 15 14 13 11 10 9 8 6 6 8 11 13 14 15 16 16 17 16 17 17 15 14 13 12 10 10 9 8 10 8 8 8 6 6 4 4 4 7 1 1 4 4 4 4 4 4 6 8 7 6 6 7 9 11 11 12 13 14 15 14 14
17 17 17 17 17 17 18 18 18 18 18 18 18 18 18 18 18 18 18 18 18 17 17 17 16 16 16 15 13 12 10 9 9 7 6 6 7 10 12 13 14 15 16 17 17 17 17 16 15 14 12 11 10 10 9 10 8 8 9 8 8 5 4 4 8 2 2 6 4 3 4 5 3 5 8 7 7 8 9 10 10 11 12 13 13 14 15 15
17 17 17 17 18 18 18 18 18 18 19 19 19 19 18 19 18 18 18 18 18 17 17 17 16 16 16 14 12 11 11 13 14 12 10 9 9 10 11 12 13 14 16 16 17 17 17 17 16 14 12 11 11 11 12 11 10 9 8 9 9 5 4 5 8 6 5 6 4 3 4 5 3 4 5 5 7 11 10 10 10 11 12 12 12 13 14 14
17 17 18 18 18 18 18 18 19 19 19 19 19 19 19 19 19 19 19 18 18 18 17 17 16 16 15 13 11 11 12 14 14 14 14 13 12 11 12 12 13 14 15 16 17 17 17 18 17 15 13 12 12 12 12 11 10 10 9 9 10 8 7 6 8 7 6 6 4 3 4 5 4 4 4 4 10 12 10 10 10 11 12 12 12 13 13 14
18 18 18 18 19 19 19 19 19 19 19 19 19 19 19 19 19 19 19 19 18 18 17 17 16 15 14 12 12 11 12 13 13 13 14 15 15 14 14 14 14 15 15 17 18 18 17 17 17 16 14 13 13 13 12 10 8 9 9 8 8 9 7 5 7 8 7 7 4 3 5 6 6 5 4 7 11 11 10 10 10 11 12 12 12 13 13 13
19 19 19 19 19 19 19 20 20 20 20 20 20 20 20 20 19 19 19 19 18 18 17 16 16 14 13 12 11 10 11 12 11 11 12 13 14 15 15 15 15 16 16 16 18 18 18 17 17 16 15 14 14 13 13 12 10 10 11 9 8 9 9 6 8 10 10 8 5 5 6 6 6 5 4 8 10 10 9 9 10 11 11 12 12 12 13 13
20 20 20 20 20 20 20 20 20 20 20 20 21 20 20 20 20 20 19 19 18 18 17 16 15 13 13 12 11 11 11 10 9 9 11 12 13 14 16 16 16 16 16 16 17 19 19 18 17 15 15 14 15 14 14 14 13 13 13 13 12 10 11 8 7 10 10 8 7 6 6 6 5 5 6 9 10 9 9 9 11 11 11 12 12 12 12 12
20 20 20 20 20 20 21 21 21 21 21 21 21 21 21 20 20 20 20 19 18 18 17 16 14 13 13 13 13 13 12 11 11 11 11 12 13 13 14 16 17 16 17 16 17 18 19 19 18 17 15 14 14 14 13 13 14 14 14 13 12 11 12 11 8 9 10 9 8 7 6 6 5 6 8 10 10 9 9 9 11 11 11 11 12 11 12 12
21 21 21 21 21 21 21 21 21 21 21 21 21 21 21 21 20 20 19 19 18 17 17 16 14 13 13 13 14 15 15 14 14 14 14 13 14 13 14 16 18 17 17 17 17 18 19 20 20 19 17 15 14 13 12 12 13 13 12 12 11 11 12 11 10 10 10 10 10 8 6 7 6 7 10 11 10 10 9 9 10 11 12 11 11 11 12 12
21 22 22 22 22 22 22 22 22 22 22 22 22 21 21 21 20 20 19 19 18 17 16 15 14 13 13 14 15 16 17 16 16 16 16 15 15 15 15 16 17 18 17 18 18 18 19 20 20 19 19 18 16 14 14 12 11 11 12 12 11 10 10 11 12 11 10 11 12 9 7 8 7 7 11 11 11 11 9 10 10 11 12 12 11 12 13 12
22 22 22 23 23 23 23 23 23 23 23 23 22 22 22 21 20 20 19 18 17 16 15 14 14 13 14 15 16 16 15 16 17 17 16 16 16 16 16 16 17 18 18 18 18 18 18 19 20 19 19 19 17 15 14 13 12 11 12 13 11 10 10 9 12 11 11 12 12 9 7 9 8 8 12 11 11 11 9 10 11 12 13 12 12 13 13 13
23 23 23 24 24 24 24 24 24 24 23 23 23 23 22 22 21 20 19 17 16 15 14 13 13 13 13 13 13 13 12 13 15 16 16 16 17 16 16 17 17 18 19 19 19 18 19 19 19 19 19 18 18 16 15 14 13 12 12 12 12 12 11 9 11 11 11 12 12 10 8 8 8 9 12 12 12 12 10 10 11 12 13 13 13 13 13 13
24 25 24 24 24 25 25 25 24 24 24 24 24 23 22 22 21 19 18 16 16 15 14 14 13 13 15 13 12 13 13 13 13 13 15 16 17 16 16 17 17 18 19 19 19 19 19 19 19 18 19 18 17 16 16 16 15 13 12 12 13 14 13 11 11 11 12 13 12 10 9 8 9 11 13 13 12 13 11 11 12 13 13 13 13 14 14 13
25 25 26 25 25 25 25 25 25 25 25 25 24 23 22 20 19 17 15 14 14 14 15 15 13 13 14 13 12 12 12 12 12 12 13 15 15 16 16 16 16 17 19 19 19 20 19 19 18 18 19 19 18 18 18 17 16 14 13 12 12 13 14 13 12 11 13 13 12 12 10 9 9 10 13 14 13 12 12 12 12 13 14 13 13 14 14 14
26 26 26 26 26 26 26 26 26 25 25 24 23 22 19 17 16 15 13 13 13 13 14 14 14 13 13 11 11 12 10 11 12 11 12 13 14 15 15 15 15 17 18 18 19 20 19 18 19 20 20 20 20 20 20 19 18 17 16 14 13 12 13 13 12 12 13 12 12 12 11 11 10 10 13 15 14 13 13 13 13 13 14 14 13 14 14 15
27 27 27 27 27 26 26 26 26 25 24 23 21 19 16 16 16 15 14 15 17 17 18 17 17 17 17 15 14 13 11 11 11 11 12 13 13 13 14 15 15 16 17 17 18 20 20 20 21 22 21 21 21 21 21 20 20 19 17 16 14 14 13 13 13 13 13 12 13 13 11 12 12 10 13 15 14 13 13 14 13 13 14 14 14 14 15 15
28 28 28 28 28 27 27 27 26 25 24 21 19 17 17 17 17 17 18 20 20 21 22 22 21 21 20 19 18 16 13 12 12 12 12 12 13 12 13 14 15 15 16 17 18 19 21 22 23 22 21 21 21 21 22 21 21 20 19 17 15 15 14 14 14 13 14 13 13 14 12 13 13 11 13 15 14 13 13 14 14 14 15 15 15 15 16 15
29 28 28 29 28 28 28 27 26 26 23 20 18 18 18 18 18 19 21 21 21 22 23 24 23 24 22 22 22 20 16 15 15 15 13 12 13 13 13 14 14 14 15 17 17 18 21 23 23 22 21 22 22 21 22 23 23 21 19 18 17 16 15 14 15 15 15 13 12 14 13 13 14 12 12 14 14 14 14 15 15 15 15 16 16 16 16 16
30 29 29 29 29 30 29 28 27 24 21 20 20 20 20 20 20 21 21 21 22 22 23 24 24 24 23 22 23 21 19 17 16 16 16 14 14 14 13 14 15 14 15 17 18 19 20 21 21 22 21 22 23 23 23 24 24 23 21 19 18 18 16 14 14 15 15 14 13 13 13 13 13 13 13 14 15 15 15 16 16 17 16 16 17 16 16 17
31 30 30 29 30 30 30 30 26 22 22 22 22 21 21 21 20 21 22 22 22 20 21 24 24 24 24 22 21 21 20 19 17 17 17 17 16 15 15 14 15 16 16 17 19 20 20 19 20 22 23 23 24 24 25 24 24 24 24 22 19 18 18 15 13 14 14 15 15 13 12 13 14 15 15 16 16 16 16 16 16 18 17 17 18 17 17 18
31 31 30 30 30 30 31 29 23 23 25 23 22 21 21 21 21 22 22 22 22 19 20 23 22 22 23 22 21 21 20 21 20 18 18 19 18 16 15 15 15 16 17 18 19 20 20 19 19 22 23 24 25 25 26 25 23 24 25 25 23 20 19 18 15 13 13 15 16 14 12 13 15 16 16 16 17 17 16 16 17 18 18 18 18 18 18 18
33 32 31 31 31 30 30 26 23 26 27 23 22 22 22 22 22 23 22 22 22 19 19 19 18 18 18 20 21 20 19 20 22 22 19 19 19 17 16 16 15 16 17 18 18 18 18 20 20 21 22 24 25 25 26 26 24 24 23 24 25 23 21 21 18 16 15 16 17 16 14 13 15 17 17 17 18 19 18 17 18 18 18 19 19 19 19 18
34 34 33 32 32 30 27 26 27 28 26 25 24 24 24 23 23 22 20 20 20 17 16 16 16 15 16 18 20 19 16 16 19 24 23 20 20 19 18 16 16 16 16 16 17 17 17 20 22 22 23 23 24 25 25 25 25 24 22 22 24 25 24 23 21 19 17 16 18 20 17 14 15 17 17 18 19 20 20 18 18 19 19 20 19 19 20 19
35 35 35 34 33 31 28 28 30 28 26 27 26 25 25 24 23 21 18 18 17 14 14 14 14 15 15 17 21 21 17 13 15 21 24 23 21 20 19 19 17 17 17 17 18 17 17 19 21 22 23 23 23 24 24 25 26 24 22 22 22 23 24 23 22 21 18 17 18 20 19 15 15 16 15 16 19 20 21 19 18 19 20 21 20 20 20 20
36 36 36 35 34 33 29 29 30 29 28 28 27 26 26 24 23 20 18 20 18 15 15 15 15 15 15 17 20 22 20 17 16 17 21 24 24 21 20 20 19 19 20 20 19 18 17 19 20 21 22 22 22 23 24 26 26 24 23 23 23 22 23 23 22 22 20 19 19 20 21 17 15 17 17 17 19 21 21 20 19 20 21 22 22 21 21 21
37 37 37 36 34 32 30 30 30 29 29 28 27 27 25 24 22 20 21 22 19 16 16 16 16 15 16 17 19 20 21 20 17 16 19 22 24 24 21 20 21 19 20 21 21 20 19 19 20 20 21 21 21 22 23 26 25 23 23 24 24 23 22 21 21 22 21 20 20 22 23 19 17 19 19 18 18 20 21 20 20 20 21 22 22 22 22 21
38 38 37 36 34 32 31 30 29 27 28 28 27 26 25 24 22 22 23 22 20 19 18 17 18 18 19 20 20 21 21 21 19 18 19 20 22 24 21 20 20 20 20 21 21 22 22 21 20 19 20 20 21 22 23 24 25 24 23 23 24 22 21 21 21 22 22 20 20 23 25 24 20 19 20 19 18 19 20 21 21 21 22 23 23 23 23 22
38 38 38 37 35 33 31 31 30 29 29 28 27 26 24 23 25 27 24 20 20 21 20 19 20 20 22 23 22 23 23 22 22 21 21 21 22 23 24 22 20 20 21 21 21 21 22 23 22 20 20 21 21 21 22 23 24 25 25 24 23 21 20 21 20 20 21 21 21 22 23 24 23 21 21 20 19 19 20 21 23 23 23 25 24 24 24 23
40 40 39 37 35 34 33 33 32 31 29 27 27 26 24 24 27 29 27 23 21 18 17 19 20 20 22 24 23 23 24 23 23 24 24 23 23 24 26 25 23 21 20 20 20 20 20 22 24 23 20 21 23 21 20 22 23 25 27 25 23 20 20 21 20 19 20 21 23 23 22 21 21 21 22 21 19 19 20 22 24 25 25 25 25 24 24 24
42 41 38 36 35 35 34 34 32 31 29 27 27 26 27 29 27 25 27 28 26 22 20 20 20 22 24 25 24 23 23 24 25 25 25 25 25 25 26 27 26 23 20 19 21 21 20 20 22 24 21 20 23 23 20 20 22 24 26 26 25 23 22 21 20 20 19 19 22 24 22 20 20 21 21 21 21 20 20 22 23 25 25 25 25 25 24 24
43 41 39 37 36 35 34 33 32 31 29 29 28 28 31 32 27 24 25 26 27 27 26 25 24 25 26 26 27 26 25 24 25 26 27 27 27 26 26 27 28 26 22 21 20 21 23 21 20 23 23 22 22 22 22 21 21 22 23 25 27 27 24 21 20 21 20 18 19 22 22 20 20 21 20 20 21 20 19 20 22 23 24 24 25 25 24 24
43 41 39 38 37 36 35 34 32 31 31 30 31 33 34 32 28 26 25 25 25 25 26 28 28 27 26 26 27 29 27 25 26 26 27 29 29 29 28 27 28 28 26 23 20 19 21 21 20 22 24 25 22 21 23 24 22 20 24 28 28 27 25 22 21 22 20 19 19 21 21 20 19 20 20 20 22 21 19 19 20 20 23 24 24 24 24 23
43 41 39 39 36 34 34 35 34 33 33 32 34 36 35 34 33 31 28 27 27 25 25 27 27 26 26 25 26 29 29 27 27 27 27 29 30 30 29 27 28 30 29 25 22 20 19 19 21 23 24 26 25 22 22 26 25 21 23 26 25 24 25 23 21 21 21 21 20 21 22 21 19 19 20 21 22 22 20 19 19 19 22 23 23 24 24 24
43 42 40 38 36 34 34 35 35 35 34 35 38 39 36 35 36 34 33 32 31 29 28 28 27 27 27 26 26 27 27 28 29 28 28 29 29 30 30 28 28 30 30 28 24 22 21 19 20 23 24 24 25 24 23 25 27 25 21 21 22 24 26 25 23 21 22 22 20 21 21 21 20 19 19 21 22 21 21 20 20 20 21 23 24 24 24 24
44 42 39 36 34 35 34 34 36 36 36 37 39 39 37 37 37 37 37 36 34 32 32 31 29 29 29 28 27 27 27 28 29 29 29 29 28 30 31 29 28 29 30 30 27 23 22 21 20 21 23 23 24 26 25 23 25 25 22 21 22 23 24 27 26 23 22 21 21 21 21 21 21 20 18 20 21 21 21 22 21 21 22 23 23 24 24 24
43 41 38 35 34 35 34 34 36 37 37 39 39 38 37 37 37 38 38 38 36 35 34 33 32 32 32 31 30 29 27 28 29 30 29 29 29 29 31 30 29 28 29 30 29 26 24 23 21 20 21 23 25 27 26 24 23 25 26 26 25 23 22 24 27 27 24 21 20 21 21 23 22 20 19 20 21 22 21 22 22 22 23 24 24 24 24 25
43 41 39 37 37 38 36 35 37 38 39 40 40 39 39 38 38 39 39 39 38 37 37 36 35 35 34 33 32 31 29 28 28 30 30 30 29 28 29 31 30 28 28 30 30 28 26 24 22 22 22 23 25 26 26 26 25 25 26 28 28 25 22 21 23 27 28 26 23 21 21 23 22 19 19 20 22 22 22 21 22 22 22 23 26 27 26 26
43 41 41 40 40 40 38 37 38 39 39 41 40 40 39 39 39 39 40 40 39 39 39 38 38 37 36 35 34 33 31 30 29 28 29 31 32 29 27 29 30 29 28 29 30 29 27 25 24 25 25 23 23 24 27 27 26 26 26 27 28 27 25 23 21 23 26 26 27 24 22 23 23 20 17 19 21 22 22 22 21 23 24 22 25 29 29 28
42 43 44 43 41 41 40 39 39 39 40 41 42 42 41 40 39 39 39 39 39 39 39 40 40 39 37 36 36 35 33 32 32 30 27 29 32 31 29 27 28 29 28 27 29 29 28 27 26 25 25 25 23 22 26 28 26 26 27 26 27 28 29 27 23 21 22 24 24 23 23 24 25 21 17 17 19 20 21 22 22 23 24 22 23 29 30 28
42 43 43 40 39 39 40 40 40 39 39 41 42 42 42 41 40 40 40 39 39 38 38 40 41 40 38 37 36 36 35 33 35 33 28 26 27 29 33 32 29 29 29 27 27 28 29 28 26 24 23 25 24 21 23 27 27 26 26 26 26 28 29 28 25 22 22 25 25 22 23 25 26 24 20 15 15 17 20 22 21 21 22 22 21 26 29 28
41 40 38 37 37 38 38 39 40 39 39 40 42 42 41 41 41 41 40 40 41 40 39 39 41 41 40 38 38 38 38 36 36 34 31 28 26 25 30 34 33 30 29 29 28 28 29 29 29 27 24 25 25 23 21 24 27 26 25 26 27 28 29 29 26 23 22 24 26 24 23 23 24 27 27 20 15 15 18 21 21 20 22 22 19 22 28 27
38 37 35 34 34 35 35 36 38 38 38 40 41 41 41 40 40 40 39 38 38 40 40 39 40 40 40 39 39 38 38 38 38 37 34 31 28 26 25 29 32 32 32 33 31 28 28 30 32 32 30 27 26 26 24 22 26 28 27 27 27 26 27 29 28 27 24 21 23 24 23 23 23 25 28 26 21 18 17 19 20 19 20 21 19 22 26 26
34 33 32 31 30 31 32 32 33 34 35 37 37 38 39 40 39 39 38 37 35 35 35 36 36 35 34 34 35 36 35 35 36 37 36 33 31 29 28 27 29 32 34 34 33 30 28 30 33 35 34 32 28 28 27 24 25 29 27 27 28 27 26 28 30 31 27 22 22 23 23 23 24 23 23 24 25 23 21 20 20 18 18 19 21 24 27 27
30 29 29 29 28 27 28 29 31 32 33 34 34 36 38 39 39 38 38 38 37 34 32 34 35 33 30 30 32 34 33 32 33 33 33 32 30 29 29 29 27 29 33 35 33 31 29 29 32 33 34 34 32 31 30 26 24 27 28 27 29 30 29 28 29 30 29 28 27 25 22 22 23 22 21 21 22 24 24 24 23 21 19 19 20 23 25 26
26 25 25 25 25 25 26 28 30 31 31 31 30 31 34 35 36 37 36 36 37 34 32 33 35 33 32 31 31 32 30 29 31 32 31 32 32 30 29 29 27 24 27 33 35 32 29 28 29 30 31 33 34 34 33 30 27 26 28 29 28 30 31 30 29 28 28 30 30 28 26 25 23 22 23 21 19 20 21 23 23 22 20 20 20 21 22 24
22 21 21 21 22 23 24 25 25 26 27 28 27 27 29 31 31 32 32 33 34 33 31 33 35 34 33 33 31 32 32 31 32 33 32 33 33 31 29 30 27 22 22 27 32 33 32 29 28 28 28 30 34 35 35 34 31 27 26 27 27 28 30 30 29 27 27 27 28 29 30 29 26 24 24 23 20 18 18 20 21 21 21 21 22 21 21 22
20 19 19 19 20 20 20 21 21 22 22 23 24 24 25 27 28 27 28 30 31 30 30 31 33 33 34 34 33 34 34 34 35 35 34 36 36 34 32 32 29 25 23 23 26 31 34 31 28 27 25 26 29 33 36 36 33 31 30 28 27 26 27 28 27 26 27 26 25 26 29 29 28 27 26 25 23 21 21 20 21 22 22 22 23 23 22 23
18 18 17 17 17 17 17 18 18 18 19 18 19 22 23 25 25 24 25 27 28 29 30 30 30 31 33 34 35 35 36 36 37 37 36 39 40 38 37 37 33 30 27 23 22 27 32 31 30 28 25 24 24 28 32 34 32 34 34 30 26 24 24 25 26 25 26 26 24 24 25 25 25 26 28 29 28 26 25 23 22 23 24 23 24 25 25 26
Wind_Direction
315 314 314 313 312 312 311 311 311 310 309 309 309 309 309 309 309 310 310 309 306 303 300 296 293 291 290 290 291 291 291 286 283 277 265 258 247 239 233 228 226 216 213 218 217 211 211 216 216 216 218 224 230 225 221 214 197 188 166 27 328 306 305 297 295 253 191 205 212 171 153 147 149 147 157 163 161 162 167 168 163 161 156 158 157 156 157 157
316 314 313 313 312 311 311 311 310 310 309 308 307 307 306 307 307 307 307 307 307 305 303 299 296 292 290 290 289 290 288 283 280 272 266 260 244 234 226 221 221 215 213 215 215 212 212 214 214 215 219 224 227 219 215 210 206 200 188 268 315 322 273 204 288 226 202 233 195 165 166 166 168 167 175 173 165 169 169 161 155 151 153 155 155 159 162 162
317 316 314 313 312 312 311 311 310 309 308 308 307 306 305 305 305 305 305 305 305 304 304 302 299 295 293 291 289 289 285 281 278 269 268 258 237 229 222 219 219 216 216 218 219 216 215 216 213 212 218 223 224 222 218 219 219 202 191 248 311 323 262 204 270 271 218 216 189 172 173 165 176 179 178 174 167 176 170 158 158 157 158 157 156 161 164 165
318 317 315 314 314 313 312 310 309 308 308 307 306 306 305 304 304 303 303 303 303 303 302 301 300 298 296 293 289 287 282 278 271 262 267 255 229 222 219 217 216 216 219 222 223 221 220 221 217 214 218 221 223 225 224 227 227 210 209 245 291 312 292 225 231 259 195 192 188 174 168 165 189 186 174 176 175 181 169 158 163 163 162 159 157 162 166 167
319 318 316 315 315 314 312 310 309 307 307 306 306 305 304 304 303 303 302 301 301 301 300 300 299 299 298 295 289 283 278 271 260 252 256 244 218 211 214 216 216 218 220 222 224 224 224 223 219 217 219 222 224 225 226 230 228 228 232 242 259 293 329 224 194 140 123 200 191 176 183 167 180 185 179 187 194 189 170 158 161 163 162 163 162 162 166 169
320 318 317 316 316 314 312 310 309 307 306 305 305 304 303 303 302 302 301 300 300 299 299 298 298 298 297 297 289 278 267 257 255 254 247 234 215 207 210 215 217 219 220 221 223 224 226 224 219 216 218 222 226 227 231 235 231 239 241 232 236 263 324 220 189 165 172 205 203 181 178 159 176 196 189 204 199 177 162 157 160 165 164 165 166 165 168 171
320 319 318 317 316 314 312 310 309 307 306 304 303 303 302 301 301 300 299 299 299 297 297 296 296 297 296 294 286 276 263 257 256 250 243 236 224 213 212 215 217 218 218 219 220 221 225 224 219 216 218 219 223 228 234 243 242 240 238 228 226 235 274 236 207 204 185 193 182 158 173 174 194 196 194 206 174 161 158 158 162 167 165 166 170 171 172 172
320 319 318 317 316 314 313 311 309 308 306 304 303 301 300 300 299 298 298 298 297 296 295 294 295 294 295 291 284 280 268 260 256 247 241 237 231 225 220 219 218 217 218 219 218 219 223 225 220 216 217 221 226 228 232 242 239 235 236 233 230 228 248 246 215 204 193 194 169 165 205 193 185 178 181 151 146 154 160 160 163 167 167 169 174 175 175 174
319 319 318 316 315 314 312 311 310 308 306 304 302 301 299 298 297 296 296 296 295 294 294 293 293 291 289 286 282 282 270 261 257 246 240 236 233 230 226 224 220 218 220 221 219 218 222 224 221 217 220 226 230 233 237 239 231 231 233 231 233 228 235 252 225 206 200 202 189 208 209 187 183 178 168 144 145 157 160 161 166 167 169 171 175 177 177 177
318 318 317 316 314 313 312 311 309 308 306 304 302 300 298 297 295 295 294 294 293 292 292 291 290 287 283 280 277 277 271 267 261 247 239 234 232 230 228 226 221 219 220 221 220 219 221 223 220 219 225 230 231 234 239 239 237 237 238 247 257 237 225 244 234 210 203 204 205 214 197 178 181 182 181 161 156 160 159 164 169 169 171 171 176 178 178 180
317 317 317 316 314 312 311 310 309 307 305 304 302 300 298 296 294 293 292 291 290 289 289 287 287 283 278 276 270 268 272 272 260 244 240 233 230 230 229 227 221 219 220 221 222 220 222 224 222 221 223 227 230 235 238 240 245 245 246 259 266 243 221 235 242 211 200 204 204 198 184 173 181 198 190 168 165 167 163 169 173 172 172 172 178 178 179 183
316 316 316 315 314 313 311 310 309 307 306 304 302 299 297 296 293 292 290 288 287 286 285 284 282 279 277 273 262 260 271 274 261 252 247 233 229 229 227 226 220 218 219 221 223 221 223 223 223 223 223 224 227 231 237 241 246 248 247 250 252 246 235 238 235 203 196 210 201 184 183 188 204 209 185 170 172 173 167 172 176 175 173 175 180 177 179 184
314 314 314 314 313 312 311 311 309 308 306 304 302 300 297 295 293 291 289 286 285 283 281 279 278 277 275 269 262 264 271 272 264 260 252 239 234 232 229 227 222 219 219 221 223 222 222 223 222 224 225 226 226 230 240 241 242 244 240 234 238 252 248 233 216 199 201 215 197 185 203 206 214 205 182 177 177 174 173 177 179 179 178 179 180 177 180 184
312 313 313 312 311 311 310 310 309 308 306 304 302 300 297 295 292 291 288 284 282 279 277 276 274 273 270 267 271 274 270 266 262 258 251 245 240 234 232 230 226 225 221 220 223 224 223 224 224 225 226 227 228 235 240 237 235 238 239 236 237 246 246 227 217 212 213 214 195 189 214 213 219 204 183 184 181 178 179 179 182 183 182 183 182 177 180 187
311 311 311 310 310 309 308 308 308 307 305 304 302 300 297 294 292 290 286 282 279 275 274 274 270 269 270 271 277 278 269 260 257 252 247 245 243 236 232 229 228 229 227 224 224 225 226 226 225 225 225 226 229 233 232 233 235 238 241 238 232 232 236 227 217 215 213 210 199 199 217 213 220 209 190 191 187 184 187 185 184 184 184 186 183 178 182 189
310 310 309 309 308 307 307 306 306 305 304 304 302 299 295 292 290 286 283 279 276 272 271 272 268 266 272 275 279 280 268 255 254 250 243 242 242 238 234 230 230 229 228 228 225 225 226 226 227 226 226 225 225 226 228 234 237 238 237 232 227 221 224 225 216 212 204 204 206 209 217 214 219 211 196 197 193 190 194 189 186 185 187 188 185 181 184 190
309 309 308 307 306 306 305 305 304 304 303 303 301 299 295 291 287 283 280 276 273 270 268 270 268 266 269 273 279 279 266 254 253 251 243 241 241 238 233 231 231 229 227 228 226 225 225 225 226 226 226 224 222 221 224 230 232 235 234 230 232 224 224 226 217 212 201 203 212 213 218 218 214 207 200 201 199 196 198 193 189 189 187 189 189 184 186 191
309 308 307 307 306 305 304 304 303 302 303 302 300 298 294 290 287 283 279 274 271 269 267 267 265 268 270 266 268 273 268 257 250 246 240 238 238 236 233 231 230 228 227 228 227 224 224 224 224 224 225 223 221 218 220 223 225 230 230 227 232 229 229 225 212 208 203 207 215 213 220 220 211 212 206 203 202 201 202 197 192 191 189 190 191 188 190 192
309 308 308 307 306 304 303 303 302 301 302 301 299 297 291 288 288 281 275 272 269 269 271 264 252 259 270 262 261 269 272 262 247 243 242 234 231 234 233 231 230 228 227 226 225 222 222 224 224 223 224 222 221 220 220 222 222 227 231 229 227 225 227 222 213 212 209 213 216 211 220 220 215 222 211 204 206 207 205 200 197 195 192 192 193 193 193 194
308 308 308 308 306 304 303 302 300 299 300 298 298 296 289 289 288 278 274 272 267 268 271 267 254 255 264 264 265 270 270 264 246 238 242 234 226 230 231 229 230 230 228 225 224 222 222 226 225 224 223 222 222 221 221 223 224 227 233 233 227 224 225 221 220 217 211 216 218 214 220 220 218 221 212 206 207 208 206 203 201 197 193 194 195 196 195 195
307 307 307 307 306 304 303 302 300 298 297 292 291 289 285 289 286 280 281 276 269 267 266 266 262 258 261 261 260 263 264 263 253 243 241 231 223 227 228 227 231 232 228 226 226 223 225 229 228 225 225 224 225 223 221 223 225 227 232 236 232 230 231 226 222 215 211 219 224 219 221 222 220 218 211 208 208 210 208 205 205 200 196 196 197 198 198 197
305 304 305 305 305 304 302 301 299 296 292 287 285 283 283 287 285 284 285 278 271 268 265 264 262 260 260 257 254 256 256 255 254 248 237 224 224 228 227 226 232 234 227 226 228 227 228 230 228 226 225 226 227 226 223 223 225 226 229 234 235 235 238 234 221 212 214 224 225 219 222 226 221 217 214 212 215 215 209 208 207 203 200 199 199 200 199 198
303 302 303 302 302 302 300 300 296 290 287 285 283 282 283 286 287 287 284 278 273 268 262 261 259 257 256 253 249 248 248 246 248 245 232 224 227 228 229 229 232 234 228 226 228 230 231 230 227 226 226 226 227 227 225 224 225 226 228 232 234 232 237 238 222 216 221 223 220 218 226 230 223 220 217 215 220 221 213 210 208 206 206 203 202 202 200 199
302 301 301 301 301 300 298 297 291 284 285 285 282 282 285 287 288 289 284 276 273 267 260 259 256 253 250 247 243 240 241 242 243 241 230 226 228 228 232 234 232 233 233 229 228 233 236 231 225 226 227 226 226 226 225 226 227 226 227 230 232 229 234 241 230 223 227 223 218 218 226 231 223 220 221 219 222 222 216 212 210 209 209 207 205 205 204 201
300 300 299 300 300 299 298 293 284 284 286 282 282 286 287 287 287 289 284 275 273 266 260 259 256 254 248 242 239 236 240 242 239 239 233 227 227 228 233 235 235 235 233 232 232 235 237 233 226 225 226 226 227 226 224 226 228 227 226 227 230 231 233 239 234 223 223 223 218 214 223 234 225 220 224 223 219 219 219 218 215 211 210 208 206 207 206 204
299 298 298 298 298 299 297 286 282 288 284 277 282 286 284 285 286 286 281 276 275 268 261 258 253 253 244 235 233 231 240 245 238 236 235 230 227 229 234 235 238 238 233 234 238 239 236 232 230 228 226 225 227 229 225 223 227 229 225 222 227 233 235 238 237 229 225 225 222 218 224 235 227 223 225 222 219 221 223 223 217 212 211 210 208 208 208 207
299 297 297 297 296 297 292 282 284 286 280 276 281 282 281 283 283 282 277 273 274 266 258 254 250 250 241 231 225 223 240 247 234 232 233 231 228 229 235 236 236 238 235 236 239 239 234 229 230 230 229 228 227 229 226 222 226 229 225 222 225 230 233 236 240 240 236 232 228 223 224 230 229 230 228 220 221 222 222 223 218 214 213 212 212 210 208 208
298 297 297 296 294 293 286 280 282 280 276 278 280 279 279 279 278 276 270 268 270 263 257 252 249 251 243 229 222 227 243 244 232 233 230 229 228 227 235 236 235 236 234 236 239 236 234 230 229 229 230 230 229 228 226 223 227 229 226 226 227 228 230 233 238 243 241 236 231 221 218 226 232 232 226 219 221 222 221 223 222 218 215 213 213 212 209 210
297 296 295 295 293 290 283 278 277 276 276 278 279 278 276 274 271 267 261 263 265 263 259 252 248 249 240 227 225 232 241 241 242 237 226 228 229 229 237 236 237 239 234 238 243 239 236 234 230 230 231 231 229 227 225 225 228 227 226 229 230 229 230 232 234 239 240 238 233 220 213 223 234 230 225 224 226 226 224 225 226 221 216 214 214 213 212 212
297 295 294 294 291 287 284 279 273 273 277 277 276 276 273 268 262 257 256 258 261 261 257 254 250 246 236 230 231 234 236 239 244 236 226 228 227 229 236 234 236 244 240 240 243 241 240 237 233 233 234 232 230 228 225 226 227 225 225 229 231 231 232 235 235 234 237 237 232 222 215 222 237 234 229 231 231 226 225 227 226 221 217 215 215 215 215 214
297 295 294 292 288 285 282 278 273 272 275 275 273 272 268 261 255 253 254 256 260 259 254 254 252 243 236 234 235 234 234 237 238 235 232 230 226 227 232 232 233 239 242 242 242 241 240 238 236 235 235 231 230 231 227 225 226 224 224 225 229 232 232 237 236 231 234 237 232 226 221 224 235 236 232 235 232 224 224 226 223 220 219 217 217 218 217 215
296 295 293 290 286 282 276 274 274 274 274 272 270 267 262 256 251 250 253 258 259 254 250 251 249 244 240 239 237 234 232 234 235 236 235 231 230 229 229 231 231 232 238 240 240 240 239 238 237 236 235 230 228 230 227 224 224 224 223 221 223 227 228 232 233 230 234 237 232 227 226 229 235 236 232 231 229 226 226 226 224 223 222 220 219 219 218 216
296 294 292 288 284 280 273 272 273 272 271 269 265 261 255 255 254 249 249 252 254 257 257 250 247 246 242 240 240 235 233 234 234 236 236 232 233 233 230 231 231 232 236 236 237 239 239 238 235 233 233 228 227 228 226 223 222 222 222 221 220 221 225 229 230 231 235 238 232 228 230 233 236 236 230 226 229 231 229 225 222 222 222 220 218 217 217 218
295 294 290 286 282 278 273 271 269 267 267 264 260 256 250 252 256 252 249 249 253 261 262 254 254 254 246 241 240 236 235 236 234 235 236 232 232 234 232 230 230 234 237 235 236 236 237 238 231 229 230 226 225 227 226 224 224 224 222 223 223 222 225 229 229 230 234 238 235 231 233 235 236 237 231 228 233 234 231 226 222 221 220 218 216 216 218 219
294 292 288 285 282 278 273 268 265 263 262 259 256 251 247 250 255 255 254 252 252 256 257 256 258 258 252 244 239 236 237 238 234 233 235 233 232 234 233 231 228 230 232 234 236 235 238 241 234 229 230 228 226 224 224 226 229 227 222 224 227 225 226 231 232 233 236 239 237 233 235 238 240 239 232 230 233 233 232 227 222 221 219 215 215 217 219 220
293 290 287 284 280 277 272 266 263 259 257 256 253 249 248 251 254 255 256 255 253 255 257 256 253 252 252 247 241 236 236 237 234 233 236 234 234 234 234 234 228 227 230 232 234 234 237 241 236 230 230 229 226 222 221 225 227 227 223 225 227 225 226 231 235 236 237 240 238 234 238 240 241 241 235 229 229 229 230 224 221 220 216 213 215 217 218 219
291 289 286 282 279 276 271 264 260 256 253 253 251 250 252 253 253 254 255 256 258 259 259 256 250 249 248 247 244 237 234 236 234 233 235 235 235 234 233 234 229 228 230 231 234 234 237 242 236 230 230 228 226 225 225 224 223 224 225 225 225 226 228 228 231 233 233 236 237 235 238 238 236 241 237 228 224 225 226 222 219 218 213 213 215 216 218 218
289 286 283 278 275 277 273 263 256 253 250 252 252 252 254 254 253 254 255 257 258 258 257 254 249 248 248 248 247 239 234 235 234 234 235 235 238 234 231 233 231 229 228 229 233 234 234 242 240 231 229 226 224 226 229 225 222 224 229 225 222 225 228 226 227 228 229 234 237 237 240 237 234 238 234 225 221 222 224 222 219 218 216 216 216 216 218 218
288 285 280 274 272 278 276 261 254 252 250 252 253 253 254 255 254 255 256 256 255 254 254 252 248 248 249 250 250 244 238 236 234 235 236 236 238 234 230 232 232 230 227 225 230 232 230 237 241 234 229 224 222 225 227 224 222 224 229 229 226 226 227 227 229 229 229 233 236 239 242 239 236 236 230 224 220 220 224 225 224 222 219 217 217 217 218 216
287 283 278 272 272 279 277 262 254 252 252 253 254 254 255 255 255 255 254 253 249 248 249 250 248 247 248 249 250 247 245 242 236 235 236 236 236 234 231 231 232 230 226 223 227 229 228 233 238 236 230 224 224 225 223 222 220 219 224 228 228 228 227 227 230 230 229 232 234 236 239 240 238 234 230 229 227 226 227 227 227 224 219 219 218 216 214 213
286 281 275 273 275 278 276 265 256 254 254 255 255 255 255 255 255 255 254 253 249 247 247 249 248 246 247 248 248 246 246 246 241 236 236 234 234 235 232 230 231 230 226 223 224 226 227 230 234 235 234 230 227 225 222 221 221 219 222 226 226 227 226 226 230 230 229 233 234 234 239 240 237 235 234 234 236 235 231 227 227 223 220 222 220 216 214 214
283 278 275 275 276 276 271 263 257 256 256 256 256 256 256 255 255 254 254 253 251 248 247 247 246 245 244 245 246 245 244 246 245 241 238 235 234 235 233 229 229 228 228 227 225 224 225 228 232 234 235 235 232 228 222 220 222 222 223 226 226 225 225 226 229 228 227 233 235 236 242 242 236 234 236 236 237 237 230 224 224 222 222 226 224 220 219 218
282 279 278 276 274 271 265 260 257 256 256 257 257 256 256 255 254 253 253 251 250 249 246 245 244 244 243 243 244 244 243 244 244 243 243 239 236 234 232 228 226 226 227 229 226 222 222 226 229 232 236 238 238 234 225 219 220 223 223 223 224 226 226 228 231 230 229 232 233 234 240 241 237 234 237 239 238 235 230 224 223 223 225 229 227 223 222 221
283 281 278 276 271 264 261 260 257 257 257 257 257 256 255 254 253 253 252 250 249 248 247 245 244 243 243 243 242 242 241 242 242 240 241 242 241 237 231 226 226 227 227 228 225 220 221 223 224 228 231 233 234 234 225 217 217 221 222 220 222 226 227 228 232 233 233 233 232 233 239 240 237 233 236 246 243 234 227 222 220 222 227 233 231 224 222 222
284 281 277 275 271 263 260 260 258 258 258 258 257 257 256 254 252 252 252 252 250 248 247 247 245 244 244 243 243 242 239 239 241 239 238 239 240 239 233 227 227 227 227 227 223 220 222 223 221 223 226 225 226 227 222 217 218 221 221 220 221 224 225 227 230 230 232 234 232 232 237 239 235 231 233 239 239 231 225 220 220 223 227 233 231 220 218 219
285 282 278 276 271 265 262 262 260 258 259 259 259 257 256 254 252 251 252 252 250 248 247 246 246 246 244 243 243 241 239 239 238 236 235 236 235 235 235 232 230 229 227 224 222 221 224 224 222 223 225 226 226 227 225 222 220 219 219 220 222 225 225 225 227 229 230 231 233 232 234 237 235 232 231 230 228 228 225 223 226 228 230 232 226 215 213 217
283 281 280 278 273 266 262 261 260 258 259 260 258 256 256 255 253 251 250 249 249 252 250 244 242 243 243 242 241 238 240 240 236 233 233 234 234 235 238 236 232 234 231 223 219 221 223 225 223 223 224 227 228 228 227 226 222 218 217 219 222 226 228 225 227 231 229 229 236 237 233 234 236 234 231 229 229 229 228 226 225 226 232 233 224 216 215 217
284 282 281 279 274 268 264 262 261 260 260 260 258 257 257 257 254 251 249 247 247 252 252 244 240 243 244 242 239 236 237 238 234 232 231 232 231 232 235 232 227 234 233 222 218 220 222 224 224 222 223 225 227 228 227 228 226 221 220 222 222 224 228 230 231 232 230 231 237 237 231 232 235 232 229 229 230 230 231 231 226 224 230 232 224 218 217 218
284 282 281 278 272 268 267 265 264 262 260 258 258 257 257 255 254 251 248 247 246 248 250 246 243 245 244 241 237 235 233 232 232 231 231 232 229 225 228 227 223 231 231 221 217 219 220 224 224 222 222 223 225 226 227 228 229 227 225 225 224 223 226 231 235 234 231 233 237 235 233 236 238 233 228 228 230 229 229 231 230 225 222 223 221 217 217 217
283 282 282 279 274 270 268 266 264 261 259 257 255 256 255 255 254 251 248 246 245 245 246 245 245 245 242 238 236 234 232 231 232 232 234 235 228 222 222 220 220 229 229 220 218 218 218 222 222 221 222 223 223 224 226 228 230 231 231 229 226 224 224 228 233 234 233 235 235 234 235 238 239 238 232 227 227 228 227 228 231 229 222 217 218 218 217 218
280 281 282 281 276 272 269 267 264 261 258 256 255 256 257 257 257 256 251 246 245 245 242 243 245 242 238 237 235 234 234 234 233 233 235 234 227 222 220 218 220 227 224 220 221 217 216 220 220 219 223 224 221 222 224 227 231 234 234 232 229 228 226 225 229 231 232 234 234 234 236 239 240 239 236 231 227 226 227 227 231 233 229 222 221 221 219 218
283 282 282 281 277 273 270 268 265 260 256 255 258 259 259 258 258 259 254 247 245 245 242 242 243 239 236 236 234 234 236 236 235 234 233 231 227 223 221 220 223 224 219 220 225 217 213 216 216 216 221 223 222 223 221 222 227 232 231 229 229 230 230 228 227 228 229 230 233 235 236 238 238 237 236 235 231 228 228 229 231 234 233 227 224 224 223 221